This demonstration page uses our WeatherBlox Daily Observations layout. Learn more.

Left ArrowRight Arrow

Hourly Observations for April 18, 2018

Temp ( °F °C ) Dew Point ( °F °C ) Humidity (%) Winds ( mph kmh ) Pressure ( in mb ) Visibility ( mi km ) Precip ( " mm )
12:52 am 00:52 Clear 68 20 52 11.1 57 57 S 18 30 29.55 1001 10 16 0.00 0.00
1:52 am 01:52 Clear 66 18.9 52 11.1 61 61 S 15 24 29.53 1000 10 16 0.00 0.00
2:52 am 02:52 Clear 64 17.8 52 11.1 65 65 SW 10 17 29.55 1001 10 16 0.00 0.00
3:52 am 03:52 Mostly Clear 69 20.6 53 11.7 57 57 SW 21 33 29.55 1001 10 16 0.00 0.00
4:52 am 04:52 Cloudy 69 20.6 54 12.2 59 59 WSW 26 43 29.57 1001 10 16 0.00 0.00
5:52 am 05:52 Cloudy 67 19.4 50 10 55 55 WSW 23 37 29.61 1003 7 11 0.00 0.00
6:16 am 06:16 Cloudy 65 18.3 46 7.8 51 51 W 22 35 29.65 1004 7 11 0.00 0.00
6:42 am 06:42 Partly Cloudy 60 15.6 43 6.1 53 53 W 23 37 29.68 1005 10 16 0.00 0.00
6:52 am 06:52 Sunny 59 15 43 6.1 56 56 W 18 30 29.69 1005 10 16 0.00 0.00
7:52 am 07:52 Sunny 57 13.9 40 4.4 53 53 W 22 35 29.75 1007 10 16 0.00 0.00
8:52 am 08:52 Sunny 57 13.9 39 3.9 51 51 WNW 17 28 29.80 1009 10 16 0.00 0.00
9:52 am 09:52 Sunny 57 13.9 38 3.3 49 49 WNW 18 30 29.83 1010 10 16 0.00 0.00
10:52 am 10:52 Sunny 57 13.9 38 3.3 49 49 WNW 20 31 29.86 1011 10 16 0.00 0.00
11:52 am 11:52 Partly Cloudy 58 14.4 39 3.9 50 50 WNW 16 26 29.90 1012 10 16 0.00 0.00
12:52 pm 12:52 Mostly Sunny 58 14.4 39 3.9 50 50 W 24 39 29.91 1013 10 16 0.00 0.00
1:52 pm 13:52 Mostly Sunny 59 15 39 3.9 48 48 WNW 21 33 29.94 1014 10 16 0.00 0.00
2:52 pm 14:52 Mostly Cloudy 59 15 38 3.3 46 46 WNW 20 31 29.95 1014 10 16 0.00 0.00
3:52 pm 15:52 Mostly Cloudy 59 15 36 2.2 42 42 WNW 22 35 29.97 1015 10 16 0.00 0.00
4:52 pm 16:52 Sunny 59 15 33 0.6 38 38 W 22 35 29.97 1015 10 16 0.00 0.00
5:52 pm 17:52 Mostly Sunny 57 13.9 36 2.2 45 45 NNW 25 41 30.01 1016 10 16 0.00 0.00
6:52 pm 18:52 Sunny 52 11.1 32 0 47 47 NW 18 30 30.07 1018 10 16 0.00 0.00
7:52 pm 19:52 Mostly Cloudy 48 8.9 31 -0.6 52 52 NNW 25 41 30.10 1019 10 16 0.00 0.00
8:52 pm 20:52 Clear 43 6.1 29 -1.7 58 58 NNW 10 17 30.15 1021 10 16 0.00 0.00
9:52 pm 21:52 Clear 39 3.9 29 -1.7 67 67 NNW 8 13 30.16 1021 10 16 0.00 0.00
10:52 pm 22:52 Clear 41 5 29 -1.7 62 62 WNW 6 9 30.17 1022 10 16 0.00 0.00
11:52 pm 23:52 Cloudy 41 5 29 -1.7 62 62 WNW 8 13 30.17 1022 10 16 0.00 0.00

Powered by AerisWeather